SWR2MR ELLX-EDDN

Flight info

Callsign SWR2MR
Flight time 0h 48m
Altitude 33000
Route ASMOX Y891 ROPUV L607 UBIDU L984 BOMBI Z723 RITUP/N0392F230 Z723 KOMIB T193 ERTES T194 DODAS DODAS1V
Aircraft A20N/M-SDE2E3FGHIRWXY/LB1

Departure

Time 2026-04-27 11:02
Airport Luxembourg-Findel International Airport (ELLX)

Arrival

Time 2026-04-27 11:50
Airport Nuremberg Airport (EDDN)
Time Latitude Longitude Altitude Speed Heading
2026-04-27 10:32 49.63331 6.21639 1237 ft 0 kts 358°
2026-04-27 10:48 49.63325 6.21640 1237 ft 2 kts 358°
2026-04-27 10:48 49.63311 6.21640 1236 ft 1 kts 358°
2026-04-27 10:48 49.63300 6.21642 1235 ft 2 kts 337°
2026-04-27 10:48 49.63289 6.21656 1234 ft 2 kts 302°
2026-04-27 10:49 49.63284 6.21678 1233 ft 2 kts 268°
2026-04-27 10:49 49.63285 6.21695 1233 ft 0 kts 244°
2026-04-27 10:49 49.63290 6.21705 1233 ft 1 kts 239°
2026-04-27 10:49 49.63290 6.21706 1233 ft 0 kts 240°
2026-04-27 10:52 49.63278 6.21685 1233 ft 6 kts 218°
2026-04-27 10:52 49.63210 6.21713 1228 ft 15 kts 149°
2026-04-27 10:52 49.63187 6.21734 1226 ft 0 kts 150°
2026-04-27 10:54 49.63186 6.21734 1226 ft 0 kts 150°
2026-04-27 10:56 49.63153 6.21762 1223 ft 10 kts 159°
2026-04-27 10:56 49.63091 6.21686 1224 ft 13 kts 242°
2026-04-27 10:57 49.63038 6.21510 1226 ft 22 kts 245°
2026-04-27 10:57 49.62961 6.21266 1232 ft 28 kts 244°
2026-04-27 10:57 49.62870 6.20973 1235 ft 31 kts 245°
2026-04-27 10:57 49.62761 6.20700 1232 ft 30 kts 223°
2026-04-27 10:58 49.62617 6.20496 1226 ft 28 kts 227°
2026-04-27 10:58 49.62497 6.20275 1219 ft 26 kts 237°
2026-04-27 10:58 49.62399 6.20013 1208 ft 29 kts 239°
2026-04-27 10:58 49.62298 6.19742 1195 ft 29 kts 240°
2026-04-27 10:59 49.62226 6.19568 1187 ft 17 kts 215°
2026-04-27 10:59 49.62188 6.19556 1185 ft 0 kts 166°
2026-04-27 11:00 49.62157 6.19576 1186 ft 15 kts 152°
2026-04-27 11:00 49.62100 6.19644 1187 ft 9 kts 107°
2026-04-27 11:00 49.62107 6.19707 1191 ft 0 kts 62°
2026-04-27 11:01 49.62107 6.19705 1190 ft 0 kts 62°
2026-04-27 11:01 49.62214 6.19994 1205 ft 66 kts 60°
2026-04-27 11:01 49.62556 6.20916 1225 ft 129 kts 60°
2026-04-27 11:02 49.63083 6.22342 1360 ft 167 kts 60°
2026-04-27 11:02 49.63665 6.23893 1944 ft 172 kts 57°
2026-04-27 11:02 49.64300 6.25472 2625 ft 176 kts 58°
2026-04-27 11:02 49.64941 6.27078 3259 ft 183 kts 58°
2026-04-27 11:03 49.65617 6.28819 3704 ft 202 kts 59°
2026-04-27 11:03 49.66358 6.30862 3952 ft 234 kts 61°
2026-04-27 11:03 49.67173 6.33181 3963 ft 254 kts 61°
2026-04-27 11:03 49.68037 6.35598 3962 ft 257 kts 59°
2026-04-27 11:04 49.69193 6.37681 3945 ft 257 kts 33°
2026-04-27 11:04 49.70863 6.38625 3953 ft 259 kts
2026-04-27 11:04 49.72648 6.38269 3960 ft 262 kts 341°
2026-04-27 11:04 49.74337 6.37245 3964 ft 262 kts 339°
2026-04-27 11:05 49.76018 6.36208 3962 ft 262 kts 339°
2026-04-27 11:05 49.77717 6.35172 3963 ft 262 kts 339°
2026-04-27 11:05 49.79417 6.34145 3964 ft 262 kts 340°
2026-04-27 11:05 49.81121 6.33120 3963 ft 262 kts 340°
2026-04-27 11:06 49.82825 6.32099 3966 ft 262 kts 340°
2026-04-27 11:06 49.84521 6.31083 3966 ft 262 kts 340°
2026-04-27 11:06 49.86227 6.30061 3968 ft 262 kts 340°
2026-04-27 11:06 49.87928 6.29042 3968 ft 262 kts 340°
2026-04-27 11:07 49.89661 6.28158 3955 ft 261 kts 353°
2026-04-27 11:07 49.91430 6.28374 3957 ft 259 kts 19°
2026-04-27 11:07 49.93097 6.29498 3966 ft 258 kts 26°
2026-04-27 11:07 49.94719 6.30699 3962 ft 258 kts 26°
2026-04-27 11:08 49.96328 6.31883 3960 ft 258 kts 25°
2026-04-27 11:08 49.97951 6.33064 3960 ft 258 kts 25°
2026-04-27 11:08 49.99581 6.34240 3958 ft 258 kts 25°
2026-04-27 11:08 50.01220 6.35419 3957 ft 259 kts 25°
2026-04-27 11:09 50.02853 6.36591 3956 ft 259 kts 25°
2026-04-27 11:09 50.04496 6.37770 4175 ft 267 kts 25°
2026-04-27 11:09 50.06183 6.38983 5104 ft 268 kts 24°
2026-04-27 11:09 50.07819 6.40308 6068 ft 269 kts 35°
2026-04-27 11:10 50.09105 6.42420 6907 ft 275 kts 57°
2026-04-27 11:10 50.09982 6.45052 7754 ft 280 kts 63°
2026-04-27 11:10 50.10824 6.47829 8568 ft 285 kts 63°
2026-04-27 11:10 50.11663 6.50606 9354 ft 289 kts 63°
2026-04-27 11:11 50.12524 6.53428 10122 ft 294 kts 63°
2026-04-27 11:11 50.13409 6.56309 10789 ft 302 kts 63°
2026-04-27 11:11 50.14343 6.59336 11182 ft 319 kts 63°
2026-04-27 11:11 50.15328 6.62518 11541 ft 337 kts 62°
2026-04-27 11:12 50.16382 6.65929 11876 ft 355 kts 63°
2026-04-27 11:12 50.17475 6.69470 12310 ft 368 kts 63°
2026-04-27 11:12 50.18573 6.73041 13005 ft 372 kts 63°
2026-04-27 11:12 50.19691 6.76680 13726 ft 375 kts 63°
2026-04-27 11:13 50.20823 6.80373 14386 ft 380 kts 64°
2026-04-27 11:13 50.21692 6.84277 14990 ft 387 kts 76°
2026-04-27 11:13 50.22012 6.88424 15597 ft 393 kts 88°
2026-04-27 11:13 50.21875 6.92689 16212 ft 397 kts 93°
2026-04-27 11:14 50.21631 6.96994 16786 ft 402 kts 94°
2026-04-27 11:14 50.21371 7.01369 17356 ft 407 kts 94°
2026-04-27 11:14 50.21117 7.05788 17916 ft 411 kts 94°
2026-04-27 11:14 50.20869 7.10240 18463 ft 415 kts 94°
2026-04-27 11:15 50.20627 7.14691 18991 ft 419 kts 93°
2026-04-27 11:15 50.20381 7.19239 19523 ft 423 kts 93°
2026-04-27 11:15 50.20134 7.23813 20050 ft 427 kts 93°
2026-04-27 11:15 50.19859 7.28445 20567 ft 431 kts 96°
2026-04-27 11:16 50.19382 7.33052 21084 ft 435 kts 101°
2026-04-27 11:16 50.18650 7.37627 21585 ft 439 kts 106°
2026-04-27 11:16 50.17724 7.42158 22088 ft 442 kts 108°
2026-04-27 11:16 50.16752 7.46711 22574 ft 446 kts 108°
2026-04-27 11:17 50.15762 7.51310 23071 ft 449 kts 108°
2026-04-27 11:17 50.14769 7.55934 23533 ft 453 kts 108°
2026-04-27 11:17 50.13785 7.60535 24003 ft 456 kts 108°
2026-04-27 11:17 50.12784 7.65219 24465 ft 460 kts 109°
2026-04-27 11:18 50.11766 7.69987 24923 ft 463 kts 109°
2026-04-27 11:18 50.10750 7.74729 25342 ft 466 kts 109°
2026-04-27 11:18 50.09722 7.79522 25761 ft 470 kts 109°
2026-04-27 11:18 50.08683 7.84347 26173 ft 472 kts 109°
2026-04-27 11:19 50.07667 7.89172 26676 ft 473 kts 107°
2026-04-27 11:19 50.06799 7.94102 27295 ft 470 kts 103°
2026-04-27 11:19 50.06056 7.98994 27875 ft 468 kts 103°
2026-04-27 11:19 50.05390 8.03948 28397 ft 467 kts 99°
2026-04-27 11:20 50.04963 8.08910 28881 ft 466 kts 94°
2026-04-27 11:20 50.04793 8.13959 29327 ft 465 kts 89°
2026-04-27 11:20 50.04827 8.18934 29756 ft 465 kts 87°
2026-04-27 11:20 50.04908 8.23960 30203 ft 464 kts 87°
2026-04-27 11:21 50.04991 8.28925 30602 ft 464 kts 87°
2026-04-27 11:21 50.05065 8.33910 30996 ft 463 kts 87°
2026-04-27 11:21 50.05129 8.38924 31401 ft 463 kts 87°
2026-04-27 11:21 50.05183 8.43878 31720 ft 464 kts 87°
2026-04-27 11:22 50.05235 8.48925 31987 ft 466 kts 87°
2026-04-27 11:22 50.05283 8.53913 32222 ft 468 kts 87°
2026-04-27 11:22 50.05331 8.59007 32495 ft 470 kts 87°
2026-04-27 11:22 50.05376 8.64035 32770 ft 471 kts 87°
2026-04-27 11:23 50.05502 8.69132 33023 ft 471 kts 84°
2026-04-27 11:23 50.05848 8.74202 33200 ft 472 kts 80°
2026-04-27 11:23 50.07225 8.84135 33201 ft 470 kts 71°
2026-04-27 11:24 50.09462 8.93588 33195 ft 467 kts 63°
2026-04-27 11:24 50.12154 9.02767 33195 ft 466 kts 62°
2026-04-27 11:25 50.14585 9.12113 33196 ft 469 kts 68°
2026-04-27 11:25 50.16538 9.21732 33210 ft 470 kts 72°
2026-04-27 11:26 50.17833 9.31748 33204 ft 473 kts 80°
2026-04-27 11:26 50.18312 9.41897 33211 ft 474 kts 86°
2026-04-27 11:27 50.18422 9.52202 33196 ft 475 kts 87°
2026-04-27 11:27 50.18529 9.62421 33206 ft 475 kts 86°
2026-04-27 11:28 50.18638 9.72684 33204 ft 474 kts 87°
2026-04-27 11:28 50.18740 9.82923 33209 ft 474 kts 87°
2026-04-27 11:29 50.18789 9.88107 33006 ft 476 kts 87°
2026-04-27 11:29 50.18834 9.93259 32192 ft 479 kts 88°
2026-04-27 11:29 50.18623 9.98368 31433 ft 482 kts 99°
2026-04-27 11:29 50.17728 10.03391 30701 ft 482 kts 112°
2026-04-27 11:30 50.16191 10.07994 29986 ft 480 kts 124°
2026-04-27 11:30 50.14159 10.12049 29287 ft 478 kts 131°
2026-04-27 11:30 50.11974 10.15953 28568 ft 477 kts 133°
2026-04-27 11:30 50.09822 10.19792 27845 ft 477 kts 131°
2026-04-27 11:31 50.07810 10.23938 27136 ft 476 kts 124°
2026-04-27 11:31 50.06109 10.28260 26365 ft 477 kts 118°
2026-04-27 11:31 50.04625 10.32863 25632 ft 476 kts 115°
2026-04-27 11:31 50.03227 10.37493 25129 ft 470 kts 115°
2026-04-27 11:32 50.01858 10.42063 24610 ft 464 kts 115°
2026-04-27 11:32 50.00501 10.46556 24101 ft 459 kts 115°
2026-04-27 11:32 49.99152 10.50976 23597 ft 455 kts 115°
2026-04-27 11:32 49.97786 10.55415 23106 ft 451 kts 115°
2026-04-27 11:33 49.96299 10.59651 22577 ft 446 kts 127°
2026-04-27 11:33 49.94157 10.62965 22082 ft 438 kts 146°
2026-04-27 11:33 49.91489 10.65088 21592 ft 429 kts 163°
2026-04-27 11:33 49.88645 10.66553 21099 ft 424 kts 165°
2026-04-27 11:34 49.85849 10.67944 20594 ft 420 kts 165°
2026-04-27 11:34 49.83119 10.69282 20104 ft 416 kts 167°
2026-04-27 11:34 49.80332 10.70342 19600 ft 411 kts 171°
2026-04-27 11:34 49.77531 10.71044 19104 ft 406 kts 176°
2026-04-27 11:35 49.74734 10.71521 18600 ft 402 kts 176°
2026-04-27 11:35 49.71970 10.71970 18096 ft 399 kts 176°
2026-04-27 11:35 49.69215 10.72420 17595 ft 396 kts 175°
2026-04-27 11:35 49.66574 10.73365 17053 ft 398 kts 157°
2026-04-27 11:36 49.64325 10.75797 16524 ft 398 kts 134°
2026-04-27 11:36 49.62818 10.79340 16004 ft 395 kts 112°
2026-04-27 11:36 49.62189 10.83377 15522 ft 390 kts 97°
2026-04-27 11:36 49.61849 10.87523 15029 ft 388 kts 96°
2026-04-27 11:37 49.61510 10.91595 14528 ft 386 kts 97°
2026-04-27 11:37 49.61142 10.95676 14039 ft 383 kts 97°
2026-04-27 11:37 49.60762 10.99680 13551 ft 380 kts 97°
2026-04-27 11:37 49.60372 11.03688 13058 ft 377 kts 97°
2026-04-27 11:38 49.59981 11.07665 12576 ft 374 kts 97°
2026-04-27 11:38 49.59596 11.11568 12087 ft 372 kts 97°
2026-04-27 11:38 49.59208 11.15494 11590 ft 369 kts 97°
2026-04-27 11:38 49.58823 11.19381 11126 ft 365 kts 97°
2026-04-27 11:39 49.58449 11.23156 10890 ft 354 kts 97°
2026-04-27 11:39 49.58078 11.26858 10722 ft 341 kts 97°
2026-04-27 11:39 49.57727 11.30358 10573 ft 329 kts 97°
2026-04-27 11:39 49.57384 11.33770 10426 ft 317 kts 97°
2026-04-27 11:40 49.57050 11.37086 10293 ft 305 kts 97°
2026-04-27 11:40 49.56731 11.40231 10108 ft 297 kts 97°
2026-04-27 11:40 49.56418 11.43333 9746 ft 295 kts 97°
2026-04-27 11:40 49.56101 11.46463 9394 ft 293 kts 97°
2026-04-27 11:41 49.55791 11.49505 9056 ft 291 kts 97°
2026-04-27 11:41 49.55479 11.52560 8714 ft 289 kts 97°
2026-04-27 11:41 49.55168 11.55597 8376 ft 286 kts 97°
2026-04-27 11:41 49.54859 11.58614 8040 ft 284 kts 97°
2026-04-27 11:42 49.54377 11.61543 7665 ft 284 kts 116°
2026-04-27 11:42 49.53070 11.63735 7313 ft 282 kts 149°
2026-04-27 11:42 49.51254 11.64602 6967 ft 273 kts 178°
2026-04-27 11:42 49.49408 11.64272 6655 ft 263 kts 190°
2026-04-27 11:43 49.47617 11.63744 6340 ft 262 kts 193°
2026-04-27 11:43 49.46023 11.62543 6198 ft 259 kts 223°
2026-04-27 11:43 49.45014 11.60291 6195 ft 255 kts 252°
2026-04-27 11:43 49.44790 11.57710 6098 ft 240 kts 274°
2026-04-27 11:44 49.45028 11.55203 5839 ft 235 kts 283°
2026-04-27 11:44 49.45385 11.52761 5543 ft 233 kts 283°
2026-04-27 11:44 49.45711 11.50346 5233 ft 233 kts 282°
2026-04-27 11:44 49.45999 11.47888 4921 ft 233 kts 281°
2026-04-27 11:45 49.46254 11.45453 4616 ft 232 kts 279°
2026-04-27 11:45 49.46415 11.43800 4456 ft 230 kts 279°
2026-04-27 11:45 49.46713 11.40638 4373 ft 217 kts 279°
2026-04-27 11:45 49.46922 11.38383 4389 ft 212 kts 279°
2026-04-27 11:46 49.47133 11.36120 4339 ft 213 kts 279°
2026-04-27 11:46 49.47344 11.33875 4106 ft 213 kts 279°
2026-04-27 11:46 49.47555 11.31644 3827 ft 212 kts 279°
2026-04-27 11:46 49.47767 11.29425 3549 ft 211 kts 280°
2026-04-27 11:47 49.47977 11.27223 3361 ft 200 kts 279°
2026-04-27 11:47 49.48172 11.25189 3058 ft 188 kts 280°
2026-04-27 11:47 49.48358 11.23266 2811 ft 175 kts 280°
2026-04-27 11:47 49.48532 11.21472 2564 ft 163 kts 279°
2026-04-27 11:48 49.48687 11.19821 2310 ft 152 kts 278°
2026-04-27 11:48 49.48845 11.18268 2117 ft 145 kts 280°
2026-04-27 11:48 49.49010 11.16748 1940 ft 144 kts 279°
2026-04-27 11:48 49.49146 11.15225 1739 ft 143 kts 277°
2026-04-27 11:49 49.49284 11.13707 1544 ft 143 kts 279°
2026-04-27 11:49 49.49435 11.12195 1379 ft 142 kts 278°
2026-04-27 11:49 49.49583 11.10692 1221 ft 142 kts 278°
2026-04-27 11:49 49.49733 11.09207 1060 ft 141 kts 277°
2026-04-27 11:50 49.49858 11.07912 1029 ft 84 kts 279°
2026-04-27 11:50 49.49921 11.07290 1021 ft 40 kts 279°
2026-04-27 11:50 49.49925 11.07038 1021 ft 17 kts 226°
2026-04-27 11:50 49.49810 11.07055 1019 ft 17 kts 158°
2026-04-27 11:51 49.49780 11.07073 1019 ft 0 kts 156°
2026-04-27 11:51 49.49778 11.07074 1019 ft 2 kts 156°
2026-04-27 11:52 49.49741 11.07151 1019 ft 7 kts 107°
2026-04-27 11:52 49.49716 11.07222 1019 ft 8 kts 159°
2026-04-27 11:52 49.49658 11.07228 1019 ft 7 kts 167°
2026-04-27 11:52 49.49633 11.07294 1019 ft 8 kts 98°
2026-04-27 11:53 49.49626 11.07363 1019 ft 4 kts 98°
2026-04-27 11:53 49.49620 11.07428 1019 ft 7 kts 98°
2026-04-27 11:53 49.49611 11.07521 1019 ft 9 kts 99°
2026-04-27 11:53 49.49594 11.07594 1021 ft 4 kts 153°
2026-04-27 11:54 49.49552 11.07589 1021 ft 6 kts 188°
2026-04-27 11:54 49.49538 11.07586 1021 ft 0 kts 187°